WetterOnline ( https://www.wetteronline.de )

Wetter aktuell Ghedi

Aktuelles Wetter: Ghedi (97m)

6-stündlich | Neueste Meldungen
Ortszeit Temperatur Wetter
So, 26.06. 14:00 30.5° C leicht bewölkt
So, 26.06. 8:00 24.2° C wolkenlos
So, 26.06. 2:00 23.0° C wolkenlos
Sa, 25.06. 20:00 29.6° C wolkenlos
Sa, 25.06. 14:00 28.0° C leicht bewölkt
Sa, 25.06. 8:00 22.0° C wolkenlos
Sa, 25.06. 2:00 20.8° C wolkenlos
Fr, 24.06. 20:00 25.3° C leicht bewölkt
Ortszeit Temperatur Wetter
So, 26.06. 19:00 31.8° C leicht bewölkt
So, 26.06. 18:00 32.0° C leicht bewölkt
So, 26.06. 17:00 31.8° C leicht bewölkt
So, 26.06. 16:00 31.2° C leicht bewölkt
So, 26.06. 15:00 31.0° C leicht bewölkt
So, 26.06. 14:00 30.5° C leicht bewölkt
So, 26.06. 13:00 29.0° C leicht bewölkt
Ortszeit Relative Feuchte Sichtweite
So, 26.06. 14:00 53% 20 km
So, 26.06. 8:00 75% 20 km
So, 26.06. 2:00 77% 20 km
Sa, 25.06. 20:00 44% 20 km
Sa, 25.06. 14:00 53% 20 km
Sa, 25.06. 8:00 76% 20 km
Sa, 25.06. 2:00 90% 20 km
Fr, 24.06. 20:00 67% 20 km
Ortszeit Relative Feuchte Sichtweite
So, 26.06. 19:00 46% 20 km
So, 26.06. 18:00 43% 20 km
So, 26.06. 17:00 43% 20 km
So, 26.06. 16:00 46% 20 km
So, 26.06. 15:00 52% 20 km
So, 26.06. 14:00 53% 20 km
So, 26.06. 13:00 56% 20 km
Ortszeit Niederschlagsmenge Niederschlagsart
So, 26.06. 14:00 0.0 l/m2 in 6 Std. -
So, 26.06. 8:00 0.0 l/m2 in 12 Std. -
So, 26.06. 2:00 0.0 l/m2 in 6 Std. -
Sa, 25.06. 20:00 0.0 l/m2 in 12 Std. -
Sa, 25.06. 14:00 0.0 l/m2 in 6 Std. -
Sa, 25.06. 8:00 0.0 l/m2 in 12 Std. -
Sa, 25.06. 2:00 0.0 l/m2 in 6 Std. -
Fr, 24.06. 20:00 1 l/m2 in 12 Std. Regen
Ortszeit Niederschlagsmenge Niederschlagsart
So, 26.06. 19:00 keine Meldung -
So, 26.06. 18:00 keine Meldung -
So, 26.06. 17:00 keine Meldung -
So, 26.06. 16:00 keine Meldung -
So, 26.06. 15:00 keine Meldung -
So, 26.06. 14:00 keine Meldung -
So, 26.06. 13:00 keine Meldung -
Ortszeit Stärke Spitze Richtung
km/h Bft. km/h Grad Sektor
So, 26.06. 14:00 11 2 - 150° SO
So, 26.06. 8:00 11 2 - 80° O
So, 26.06. 2:00 4 1 - 300° NW
Sa, 25.06. 20:00 6 1 - 280° W
Sa, 25.06. 14:00 13 3 - 260° W
Sa, 25.06. 8:00 6 1 - 200° S
Sa, 25.06. 2:00 4 1 - 270° W
Fr, 24.06. 20:00 7 2 - 330° NW
Ortszeit Stärke Spitze Richtung
km/h Bft. km/h Grad Sektor
So, 26.06. 19:00 9 2 - 120° SO
So, 26.06. 18:00 9 2 - 140° SO
So, 26.06. 17:00 9 2 - 170° S
So, 26.06. 16:00 9 2 - 240° SW
So, 26.06. 15:00 11 2 - 160° S
So, 26.06. 14:00 11 2 - 150° SO
So, 26.06. 13:00 9 2 - 150° SO
Ortszeit Untergrenze Bedeckung Gattung
total tief tief mittel hoch
So, 26.06. 14:00 6000 m 3/8 3/8 - - Ci
So, 26.06. 8:00 - 0/8 0/8 - - -
So, 26.06. 2:00 - 0/8 0/8 - - -
Sa, 25.06. 20:00 - 0/8 0/8 - - -
Sa, 25.06. 14:00 1050 m 2/8 2/8 Cu - -
Sa, 25.06. 8:00 - 0/8 0/8 - - -
Sa, 25.06. 2:00 - 0/8 0/8 - - -
Fr, 24.06. 20:00 1500 m 3/8 3/8 Sc - -
Ortszeit Bedeckungsgrad in Achtel und Wolkenuntergrenze
So, 26.06. 19:00 3(2400m)
So, 26.06. 18:00 2
So, 26.06. 17:00 2(1200m)
So, 26.06. 16:00 2(1200m)
So, 26.06. 15:00 3
So, 26.06. 14:00 3(6000m)
So, 26.06. 13:00 3
Ortszeit Luftdruck NN (hPa) Tendenz (hPa in 3 Std.)
So, 26.06. 14:00 1014 - 1,3
So, 26.06. 8:00 1015 + 1,8
So, 26.06. 2:00 1013 + 0,7
Sa, 25.06. 20:00 1010 - 0,6
Sa, 25.06. 14:00 1012 - 0,4
Sa, 25.06. 8:00 1012 + 1,6
Sa, 25.06. 2:00 1010 + 0,6
Fr, 24.06. 20:00 1010 + 1,8
Ortszeit Luftdruck NN (hPa) Tendenz (hPa in 3 Std.)
So, 26.06. 19:00 1012 - 0,7
So, 26.06. 18:00 1013 - 0,5
So, 26.06. 17:00 1013 - 0,6
So, 26.06. 16:00 1013 - 1,1
So, 26.06. 15:00 1013 - 1,6
So, 26.06. 14:00 1014 - 1,3
So, 26.06. 13:00 1014 - 0,5
Ortszeit Schneehöhe (cm)
So, 26.06. 14:00 -
So, 26.06. 8:00 0
So, 26.06. 2:00 -
Sa, 25.06. 20:00 -
Sa, 25.06. 14:00 -
Sa, 25.06. 8:00 0
Sa, 25.06. 2:00 -
Fr, 24.06. 20:00 -
Ortszeit Schneehöhe (cm)
So, 26.06. 19:00 -
So, 26.06. 18:00 -
So, 26.06. 17:00 -
So, 26.06. 16:00 -
So, 26.06. 15:00 -
So, 26.06. 14:00 -
So, 26.06. 13:00 -
Link zu dieser Seite / Seite empfehlen

Das Wetter in ...